Regional Weather Roundup
Issued by NWS

Home | Current Version | Previous Version | Text Only | Print | Product List | Glossary On
Versions: 1 2 3 4 5 6 7 8 9 10 11 12 13 14 15 16 17 18 19 20 21 22 23 24 25 26 27 28 29 30 31 32 33 34 35 36 37 38 39 40 41 42 43 44 45 46 47 48 49 50
000
ASUS43 KBIS 162320
RWRND

NORTH DAKOTA REGIONAL WEATHER ROUNDUP
NATIONAL WEATHER SERVICE BISMARCK ND
600 PM CDT TUE SEP 16 2014

NOTE: "FAIR" INDICATES FEW OR NO CLOUDS BELOW 12,000 FEET WITH NO
SIGNIFICANT WEATHER AND/OR OBSTRUCTIONS TO VISIBILITY.


NDZ001>003-009>011-017-170000-
NORTHWEST NORTH DAKOTA

CITY           SKY/WX    TMP DP  RH WIND       PRES   REMARKS
WILLISTON      SUNNY     73  36  25 S8        29.92F
MINOT          SUNNY     72  42  34 CALM      29.91F
MINOT AFB      SUNNY     71  44  38 NE5       29.91S
$$

NDZ018>021-031>035-040>046-170000-
SOUTHWEST NORTH DAKOTA

CITY           SKY/WX    TMP DP  RH WIND       PRES   REMARKS
BISMARCK       SUNNY     74  45  35 CALM      29.92F
DICKINSON      SUNNY     73  47  39 NE7       29.93S
GARRISON         N/A     71  41  33 SW8       29.92F
HETTINGER ARPT SUNNY     77  44  30 NW7       29.93F
$$

NDZ004>008-012>016-024-026-027-054-170000-
NORTHEAST NORTH DAKOTA

CITY           SKY/WX    TMP DP  RH WIND       PRES   REMARKS
GRAND FORKS    MOSUNNY   72  43  35 S6        29.92F
GRND FRKS AFB  SUNNY     72  42  34 S8        29.93F
DEVILS LAKE    SUNNY     70  41  35 SE6       29.92S
$$

NDZ022-023-025-028>030-036>039-047>053-170000-
SOUTHEAST NORTH DAKOTA

CITY           SKY/WX    TMP DP  RH WIND       PRES   REMARKS
FARGO          SUNNY     71  42  35 S5        29.95F
JAMESTOWN      SUNNY     67  47  48 SE3       29.94S
$$




USA.gov is the U.S. government's official web portal to all federal, state and local government web resources and services.